2001 CA21
ephemeris date magn radius delta ra dec elong phase
Today26 Aug 202624.93.323 AU3.591 AU05h41m+24°51'66.6°16.2°
2001 CA21 - 2026-08-26
astro.vanbuitenen.nl


 
-1 year
-1 month
-1 day
Now
+1 day
+1 month
+1 year

The interactive orbit chart above shows the body's path through the solar system and its position at the given date. Green and blue lines are shown perpendicular to the ecliptic plane: Green if the path is above the ecliptic plane, blue if it is below. (Left-click and drag to rotate the view; Right-click and drag to move the view; Use scroll wheel to zoom in our out.)

The orbital elements of 2001 CA21 are:

            e (Eccentricity)                : 0.8289717
            a (Semimajor axis)              : 2.1131443
            i (Inclination)                 : 5.25828
            Ω (Longitude of ascending node) : 51.79975
            ω (Argument of perihelion)      : 212.75474
            M (Mean anomaly)                : 343.17872
            Epoch                           : 2001 Jan 31

            L (Longitude of perihelion)     : 84.44464
            B (Latitude of perihelion)      : -2.84213
            P (Orbital period in years)     : 3.07            
        

The light curve chart below shows the estimated development of the minor planet's magnitude.


The all-sky chart below shows the path of the minor planet over the same period as the light curve. The current position is marked yellow.





The following chart shows the path of the minor planet in the next few days. The field of view is optimized for (~10x50) binoculars and finderscopes.




Ephemerides:
Date       Time       RA (2000)    DEC (2000)    delta   radius  elong  phase   PA    magn
2026-08-26 00:00 UT   05 41 28.4   +24 51 38     3.591    3.323   66.6   16.2   269   24.9 
2026-08-26 16:37 UT   05 41 55.4   +24 52 20     3.584    3.326   67.2   16.3   269   24.9 
2026-08-27 00:00 UT   05 42 07.2   +24 52 39     3.581    3.327   67.5   16.3   269   24.9 
2026-08-28 00:00 UT   05 42 45.1   +24 53 39     3.571    3.332   68.3   16.4   269   24.9 
2026-08-29 00:00 UT   05 43 22.1   +24 54 38     3.560    3.336   69.1   16.4   269   24.9 
2026-08-30 00:00 UT   05 43 58.2   +24 55 37     3.550    3.341   69.9   16.5   269   24.9 
2026-08-31 00:00 UT   05 44 33.4   +24 56 36     3.539    3.345   70.8   16.6   269   24.9 
2026-09-01 00:00 UT   05 45 07.8   +24 57 34     3.528    3.350   71.6   16.6   269   24.9 
2026-09-02 00:00 UT   05 45 41.1   +24 58 31     3.517    3.354   72.4   16.7   269   24.8 
2026-09-03 00:00 UT   05 46 13.6   +24 59 29     3.506    3.358   73.3   16.7   269   24.8 
2026-09-04 00:00 UT   05 46 45.1   +25 00 26     3.495    3.363   74.1   16.8   269   24.8 
2026-09-05 00:00 UT   05 47 15.6   +25 01 23     3.484    3.367   75.0   16.8   269   24.8 
2026-09-06 00:00 UT   05 47 45.1   +25 02 19     3.473    3.371   75.8   16.9   269   24.8 
2026-09-07 00:00 UT   05 48 13.6   +25 03 15     3.462    3.376   76.7   16.9   269   24.8 
2026-09-08 00:00 UT   05 48 41.1   +25 04 11     3.450    3.380   77.6   16.9   269   24.8 
2026-09-09 00:00 UT   05 49 07.5   +25 05 07     3.439    3.384   78.4   17.0   269   24.8 
2026-09-10 00:00 UT   05 49 32.9   +25 06 03     3.427    3.388   79.3   17.0   269   24.8 
2026-09-11 00:00 UT   05 49 57.2   +25 06 59     3.415    3.392   80.2   17.0   269   24.8 
2026-09-12 00:00 UT   05 50 20.5   +25 07 55     3.404    3.397   81.1   17.0   269   24.8 
2026-09-13 00:00 UT   05 50 42.6   +25 08 50     3.392    3.401   82.0   17.0   269   24.8 
2026-09-14 00:00 UT   05 51 03.7   +25 09 46     3.380    3.405   82.9   17.0   269   24.8 
2026-09-15 00:00 UT   05 51 23.6   +25 10 41     3.368    3.409   83.8   17.1   269   24.8 
2026-09-16 00:00 UT   05 51 42.3   +25 11 37     3.356    3.413   84.7   17.1   269   24.8 
2026-09-17 00:00 UT   05 51 59.9   +25 12 33     3.344    3.417   85.6   17.1   269   24.8 
2026-09-18 00:00 UT   05 52 16.4   +25 13 29     3.332    3.421   86.5   17.1   269   24.8 
2026-09-19 00:00 UT   05 52 31.6   +25 14 24     3.320    3.425   87.4   17.0   269   24.8 
2026-09-20 00:00 UT   05 52 45.7   +25 15 21     3.308    3.429   88.3   17.0   269   24.8 
2026-09-21 00:00 UT   05 52 58.5   +25 16 17     3.296    3.433   89.3   17.0   269   24.8 
2026-09-22 00:00 UT   05 53 10.1   +25 17 13     3.284    3.437   90.2   17.0   269   24.8 
2026-09-23 00:00 UT   05 53 20.5   +25 18 09     3.272    3.441   91.1   17.0   269   24.8 
2026-09-24 00:00 UT   05 53 29.7   +25 19 06     3.259    3.445   92.1   16.9   269   24.8 
2026-09-25 00:00 UT   05 53 37.5   +25 20 03     3.247    3.449   93.0   16.9   269   24.7 


    Terminology:
            
    delta:  distance between minor planet and earth in AU
    radius: distance between minor planet and sun in AU
    magn:   magnitude (brightness) estimate    
    ra:     right ascension in hours (24h = 360deg)
    dec:    declination in degrees
    elong:  elongation in degrees (angle sun-earth-minor planet)    
    phase:  phase angle in degrees (angle sun-minor planet-earth)        
    AU:     Astronomical Unit (mean distance between earth and sun: 149597870.7 km
    

Orbital elements provided by the MPC (Minor Planet Center).
Calculations by a modified version of AAPlus, a C# implementation of the AA+ project by PJ Naughter from the algorithms presented in the book "Astronomical Algorithms" by Jean Meeus.
NGC2000 dso catalog and star labels from VizieR as provided by the Strasbourg astronomical Data Center.
Tycho2 catalog from the ESO archive.